Temperature
3 3 3 3 3 3 3 3 3 3 3 3 3 3 3 3 2 2 2 2 2 2 2 2 2 2 2 2 1 1 1 1 1 2 2 1 2 2 2 2 2 2 2
3 2 2 2 2 2 2 2 2 2 2 2 2 2 2 2 2 2 2 2 2 2 2 1 1 1 1 1 1 1 1 1 0 1 1 1 1 1 1 1 1 1 1
2 2 2 2 2 2 2 2 2 2 2 2 2 2 2 2 1 1 1 1 1 1 1 1 1 1 1 1 1 0 0 0 -0 -0 0 0 0 0 0 1 1 0 0
2 2 2 1 1 1 1 1 1 1 1 1 1 1 1 1 1 1 1 1 1 1 1 1 1 0 0 0 0 -0 -0 -0 -0 -1 -1 -0 -0 -0 -0 -0 -0 -0 -0
1 1 1 1 1 1 1 0 0 0 0 1 1 1 1 0 0 1 1 0 0 0 0 0 0 0 -0 -0 -0 -0 -1 -1 -1 -1 -1 -1 -1 -1 -1 -1 -1 -1 -1
1 1 1 1 0 0 0 0 0 0 0 0 0 0 0 0 0 0 0 0 0 -0 -0 -0 -0 -0 -0 -1 -1 -1 -1 -1 -1 -1 -1 -1 -1 -1 -1 -2 -2 -2 -2
1 1 0 0 0 0 -0 -0 -0 -0 -0 -0 -0 -0 -0 -0 -0 -0 -0 -0 -0 -0 -1 -1 -1 -1 -1 -1 -1 -1 -1 -1 -2 -2 -2 -2 -2 -2 -2 -2 -2 -2 -2
0 0 0 0 0 -0 -0 -0 -0 -1 -1 -1 -1 -1 -1 -1 -1 -1 -1 -1 -1 -1 -1 -1 -1 -1 -1 -1 -1 -1 -1 -2 -2 -2 -2 -2 -2 -2 -2 -2 -2 -2 -2
0 0 -0 -0 -0 -0 -0 -1 -1 -1 -1 -1 -1 -1 -1 -1 -1 -1 -1 -2 -1 -2 -2 -2 -2 -2 -2 -2 -2 -2 -2 -2 -2 -2 -2 -2 -2 -2 -3 -3 -3 -3 -3
-0 -0 -0 -0 -0 -1 -1 -1 -1 -1 -2 -2 -2 -2 -2 -2 -2 -2 -2 -2 -2 -2 -2 -2 -2 -2 -2 -2 -2 -2 -2 -2 -2 -2 -2 -2 -3 -3 -3 -3 -3 -3 -4
-1 -1 -1 -1 -1 -1 -1 -1 -2 -2 -2 -2 -2 -2 -2 -2 -2 -2 -3 -3 -2 -2 -2 -2 -2 -2 -3 -3 -3 -3 -3 -3 -3 -3 -3 -3 -3 -3 -3 -3 -3 -4 -4
-1 -1 -1 -1 -1 -1 -2 -2 -2 -2 -2 -2 -3 -2 -3 -3 -3 -3 -3 -3 -3 -3 -3 -3 -3 -3 -3 -3 -3 -3 -3 -3 -3 -3 -3 -3 -3 -3 -3 -3 -3 -4 -4
-1 -1 -2 -2 -2 -2 -2 -2 -2 -2 -3 -3 -3 -3 -3 -3 -3 -3 -3 -3 -3 -3 -3 -3 -3 -3 -3 -3 -3 -4 -4 -4 -4 -4 -4 -4 -4 -4 -4 -4 -4 -4 -4
-2 -2 -2 -2 -2 -2 -2 -2 -3 -3 -3 -3 -3 -3 -3 -3 -3 -4 -4 -4 -4 -4 -4 -4 -4 -4 -4 -4 -4 -4 -4 -4 -4 -4 -4 -4 -4 -4 -4 -4 -4 -4 -4
-2 -2 -3 -3 -3 -3 -3 -3 -3 -3 -3 -3 -3 -3 -3 -4 -4 -4 -4 -4 -4 -4 -4 -4 -4 -4 -4 -4 -4 -4 -4 -4 -4 -4 -4 -4 -4 -4 -4 -4 -4 -5 -5
-3 -3 -3 -3 -3 -3 -3 -3 -4 -4 -4 -4 -4 -4 -4 -4 -4 -4 -4 -4 -4 -4 -4 -4 -4 -4 -4 -4 -4 -4 -4 -4 -4 -4 -4 -5 -5 -5 -5 -5 -5 -5 -5
-3 -3 -3 -4 -4 -4 -4 -4 -4 -4 -4 -4 -4 -4 -4 -4 -4 -4 -4 -4 -4 -5 -5 -5 -5 -5 -5 -5 -5 -5 -5 -5 -5 -5 -5 -5 -5 -5 -5 -5 -5 -5 -5
-4 -4 -4 -4 -4 -4 -4 -4 -4 -4 -4 -4 -4 -4 -4 -5 -5 -5 -5 -5 -5 -5 -5 -5 -5 -5 -5 -5 -5 -5 -5 -5 -5 -5 -5 -5 -5 -5 -5 -5 -5 -5 -5
-4 -4 -4 -4 -4 -4 -4 -5 -5 -5 -5 -5 -5 -5 -5 -5 -5 -5 -5 -5 -5 -5 -5 -5 -5 -5 -5 -5 -5 -5 -5 -5 -5 -5 -5 -5 -5 -5 -5 -5 -5 -5 -5
-4 -4 -4 -4 -5 -5 -5 -5 -5 -5 -5 -5 -5 -5 -5 -5 -5 -5 -5 -5 -5 -5 -5 -5 -5 -5 -5 -5 -5 -5 -5 -5 -5 -5 -5 -5 -5 -5 -5 -5 -5 -5 -5
-4 -4 -5 -5 -5 -5 -5 -5 -5 -5 -5 -5 -5 -5 -5 -5 -5 -5 -5 -5 -5 -5 -5 -5 -5 -5 -5 -5 -5 -5 -5 -5 -5 -5 -5 -5 -5 -5 -5 -5 -5 -5 -5
-5 -5 -5 -5 -5 -5 -5 -5 -5 -5 -5 -6 -5 -5 -6 -6 -5 -5 -5 -5 -5 -5 -5 -6 -6 -6 -5 -6 -6 -6 -6 -6 -6 -5 -5 -5 -5 -5 -5 -5 -5 -5 -5
-5 -5 -5 -5 -5 -5 -5 -6 -6 -6 -6 -6 -6 -6 -6 -6 -6 -5 -6 -6 -6 -6 -6 -6 -6 -6 -6 -6 -6 -6 -6 -6 -6 -5 -5 -5 -5 -5 -5 -5 -5 -5 -5
-5 -5 -5 -5 -5 -6 -6 -6 -6 -6 -6 -6 -6 -6 -6 -6 -6 -6 -5 -6 -6 -6 -6 -6 -6 -6 -6 -6 -6 -6 -6 -6 -5 -5 -5 -5 -5 -5 -5 -5 -6 -6 -6
-5 -6 -6 -6 -6 -6 -6 -6 -6 -6 -6 -6 -6 -6 -6 -6 -6 -6 -5 -6 -6 -6 -6 -6 -6 -6 -6 -6 -6 -6 -5 -5 -5 -5 -5 -6 -5 -5 -5 -6 -6 -6 -6
-6 -6 -6 -6 -6 -6 -6 -6 -6 -6 -6 -6 -6 -6 -6 -6 -6 -6 -6 -6 -6 -6 -6 -6 -6 -6 -6 -6 -6 -6 -5 -5 -5 -5 -6 -6 -6 -5 -6 -6 -6 -6 -6
Wind_Speed
2 1 0 0 0 1 1 1 1 1 2 2 2 2 2 2 2 2 2 2 3 3 3 4 4 3 3 3 3 3 3 3 5 4 2 3 3 4 6 7 7 7 8
2 1 1 1 1 1 1 0 1 1 2 2 2 2 2 2 2 3 3 3 4 4 4 4 4 4 4 3 3 3 3 3 4 5 4 3 4 4 4 4 5 7 7
2 1 1 1 1 0 0 0 0 0 1 1 1 2 2 2 2 3 3 3 4 4 4 5 5 4 4 3 3 3 3 3 3 4 4 3 3 4 4 4 4 4 7
2 1 1 1 1 1 0 0 0 0 1 1 1 2 2 2 3 3 3 3 3 3 3 3 3 4 4 4 4 4 3 3 3 3 4 4 4 3 3 3 3 3 4
1 1 1 1 1 1 0 1 1 1 1 1 1 1 2 2 3 3 3 3 3 3 3 3 4 4 6 5 5 4 4 3 3 3 4 4 4 3 3 2 3 4 4
1 1 1 1 1 1 1 1 1 1 1 1 1 2 2 3 4 4 4 3 3 3 4 4 4 5 6 8 8 7 6 5 4 4 4 5 5 4 3 3 3 4 4
0 0 1 1 1 1 1 1 1 1 1 1 2 2 2 3 4 5 5 3 3 4 4 4 4 4 5 4 6 7 6 8 8 6 6 6 5 4 4 4 4 4 5
1 0 1 0 1 1 1 1 2 1 1 2 2 2 2 3 4 5 5 3 3 4 4 4 3 3 4 4 4 4 5 5 6 5 5 6 6 5 5 5 5 4 4
1 1 1 1 1 1 2 2 2 1 2 2 2 2 2 3 4 4 4 2 3 4 4 4 4 4 6 7 5 4 4 5 6 8 8 8 9 8 5 2 2 3 5
1 1 1 1 2 2 2 2 2 1 2 2 2 2 2 3 5 5 4 2 3 3 3 3 5 6 7 7 4 4 4 4 4 5 5 6 5 5 6 4 3 3 4
1 1 1 2 2 2 2 2 2 2 2 2 3 3 3 4 5 5 5 2 2 3 3 3 3 6 7 7 5 4 5 5 3 3 3 3 3 3 3 3 3 4 4
1 1 1 1 2 1 1 1 1 1 2 2 2 3 2 3 4 4 5 4 4 3 3 3 3 6 6 5 4 4 6 5 2 2 3 3 3 3 3 3 4 4 5
0 1 1 1 1 1 1 1 1 1 1 2 2 2 2 2 3 4 5 5 5 3 3 5 5 6 5 4 5 5 4 2 2 3 3 3 3 3 2 2 2 2 3
1 1 1 1 1 1 1 1 1 1 1 2 2 2 2 2 2 2 2 3 4 4 3 4 5 4 4 3 3 3 2 2 2 3 3 3 2 2 2 2 2 2 2
1 1 1 1 1 1 1 1 2 2 3 3 2 3 2 3 4 5 4 2 2 3 2 1 1 2 2 2 2 2 2 2 2 2 2 2 2 2 2 2 1 1 2
1 1 1 1 1 1 1 2 3 4 5 5 6 5 4 5 6 7 6 6 6 4 2 2 2 2 2 2 2 2 2 2 2 1 2 2 2 2 2 2 2 2 2
1 1 1 1 1 1 1 1 2 3 4 5 6 6 6 6 7 7 6 6 6 4 2 2 2 2 2 2 2 2 2 2 2 2 2 2 2 2 2 2 2 2 2
1 2 1 1 1 1 1 2 2 2 3 3 4 5 6 6 6 6 6 4 3 2 2 2 3 3 2 2 2 2 2 2 2 2 2 2 2 2 2 2 2 2 2
1 1 1 1 1 1 1 1 2 2 3 3 3 3 5 6 5 5 4 2 2 2 2 2 3 3 2 2 2 2 2 2 2 2 2 2 2 2 2 2 2 3 2
1 3 2 1 1 1 1 1 2 2 3 3 3 3 3 3 2 3 2 2 2 2 3 3 3 3 2 2 2 2 2 2 2 2 2 2 2 2 2 2 2 2 2
1 2 3 2 1 2 2 2 2 2 3 3 3 4 5 2 3 3 3 2 2 3 3 3 3 3 3 2 2 2 2 2 2 2 2 2 2 2 2 2 2 2 2
2 2 2 2 2 2 2 2 2 2 3 3 3 4 5 3 3 3 3 3 3 3 3 3 3 3 3 3 3 3 3 2 2 2 2 2 2 2 2 1 1 2 2
2 2 2 2 2 3 2 2 2 2 3 3 3 3 3 3 3 3 3 3 3 3 3 3 3 3 2 2 3 3 3 3 3 3 2 2 2 2 1 1 2 2 2
2 2 2 2 2 2 2 2 2 3 3 3 3 3 3 3 3 3 3 3 3 3 3 3 3 3 3 3 2 3 3 3 3 3 3 2 2 1 1 1 1 2 2
2 2 2 2 2 2 2 2 3 3 3 3 3 3 3 3 3 3 3 3 3 3 3 3 3 3 4 4 4 3 4 4 3 2 2 2 2 2 2 2 2 1 1
1 2 2 2 2 2 2 2 3 3 3 3 2 2 2 2 3 3 3 3 3 3 3 3 4 4 4 4 4 4 4 4 3 3 2 2 2 2 2 1 2 1 1
Wind_Direction
83 41 126 132 140 129 142 168 179 167 170 181 180 188 203 213 215 213 217 219 224 233 238 234 238 234 231 236 236 234 238 233 256 277 283 305 305 298 303 303 303 298 295
96 63 96 84 54 76 107 167 184 182 180 190 182 201 216 227 225 223 230 229 226 231 240 237 239 239 235 233 230 234 238 237 247 273 289 291 288 290 295 300 309 304 301
98 66 89 98 92 66 287 219 196 195 206 217 207 222 234 239 237 239 238 237 240 241 244 241 239 236 242 239 235 239 245 258 250 266 280 285 292 298 300 301 305 305 303
99 110 136 137 155 172 253 257 241 234 243 240 237 237 233 241 247 248 249 250 252 250 252 247 244 236 237 237 239 239 242 253 260 268 278 287 290 291 289 299 308 303 301
127 128 181 184 162 150 206 247 248 260 275 252 248 259 252 240 242 247 257 256 248 252 259 254 250 243 247 244 243 232 234 245 252 263 274 283 282 288 285 289 300 308 302
124 154 204 189 177 179 215 242 253 263 274 258 245 246 259 260 257 256 258 255 252 250 256 258 254 249 257 258 256 252 245 241 245 252 263 271 272 276 284 289 299 308 301
97 278 227 205 208 209 226 241 256 260 273 275 267 257 264 266 263 268 271 268 257 258 258 260 270 265 263 246 253 259 264 265 256 253 259 264 269 269 268 276 280 284 280
183 279 247 214 237 245 238 250 265 262 265 270 276 271 273 277 274 277 283 273 260 259 260 256 255 272 262 251 240 244 251 259 261 260 252 259 262 259 253 260 268 281 285
208 239 245 235 243 257 254 259 266 265 271 271 270 262 267 278 280 281 284 283 266 263 263 257 251 258 265 258 248 245 255 263 269 267 263 263 265 266 271 269 266 281 292
252 262 266 255 243 253 256 264 275 266 265 271 273 267 265 273 284 281 278 266 264 271 273 263 254 257 264 259 244 239 256 265 274 283 279 274 269 261 261 248 233 253 281
260 277 275 263 248 252 260 266 264 270 276 275 271 268 264 270 281 282 279 263 252 261 270 270 265 269 270 263 259 241 255 266 264 266 270 269 271 263 254 250 240 232 249
242 260 270 272 264 253 240 258 254 252 264 272 271 281 277 278 285 285 283 275 272 254 261 269 273 279 276 268 264 265 272 280 269 260 270 278 277 272 267 269 266 258 249
278 281 272 274 269 241 224 240 255 249 255 271 268 275 287 288 290 290 296 296 289 270 263 272 279 283 280 272 271 272 274 262 257 262 266 271 271 270 281 290 294 297 296
226 270 277 282 285 272 257 240 229 242 255 271 273 276 283 292 295 304 301 295 291 280 279 281 284 288 286 271 271 271 258 245 247 254 265 271 280 276 275 277 284 295 301
230 262 287 287 270 288 299 282 264 251 249 254 259 258 264 277 288 301 305 291 273 268 284 277 278 286 285 276 268 266 260 258 257 255 259 274 285 287 284 281 283 286 283
254 277 285 288 287 277 291 314 299 276 279 275 273 275 276 279 291 295 298 301 296 287 283 278 270 268 266 273 275 275 261 257 253 257 263 269 277 279 283 288 284 279 278
244 263 270 279 282 283 282 290 309 316 299 287 282 282 280 285 290 294 296 298 293 287 267 269 269 264 263 270 272 274 275 276 266 251 256 264 268 264 260 265 275 280 284
257 268 267 255 261 272 282 288 291 300 312 308 295 291 292 290 292 297 298 300 293 288 268 265 266 262 259 261 266 267 269 268 260 254 257 261 259 257 258 264 267 270 284
267 257 251 245 252 259 268 276 279 287 290 295 306 310 308 302 297 297 301 298 280 280 275 268 268 263 260 259 261 259 255 256 258 250 249 254 255 255 256 261 266 277 281
245 247 255 247 250 255 257 262 268 273 282 285 292 301 313 316 310 307 308 296 279 273 274 268 266 267 259 254 257 258 256 251 251 251 252 253 253 250 249 253 261 266 273
234 240 250 263 256 254 260 262 262 269 277 279 283 289 303 305 295 292 296 292 284 279 279 275 267 270 265 258 252 252 254 255 252 252 253 247 245 254 255 252 251 253 272
220 236 241 238 244 246 261 264 262 266 272 280 292 298 301 299 293 293 289 288 282 282 280 279 274 270 266 257 248 247 249 250 251 252 248 243 245 249 249 250 250 249 254
209 228 244 247 246 258 268 269 275 279 280 282 289 293 293 291 288 287 290 291 294 293 287 276 275 278 276 268 253 244 244 244 247 244 236 236 238 240 240 243 246 245 247
216 227 237 247 246 243 252 262 269 275 277 280 283 286 289 290 291 290 292 299 300 295 294 283 268 265 272 279 274 262 255 258 250 233 224 223 227 231 230 224 240 245 245
225 234 242 247 248 249 254 265 271 273 277 281 283 286 290 293 296 297 300 303 302 300 297 296 285 272 268 270 272 271 266 260 249 234 217 220 212 217 221 227 233 239 251
232 241 249 252 249 248 254 264 270 275 278 281 286 288 292 297 297 297 301 303 306 305 302 300 293 288 282 278 274 270 262 257 244 235 219 216 205 209 207 214 216 219 228
Height
1463 1464 1465 1465 1466 1466 1466 1467 1468 1469 1470 1470 1471 1472 1472 1473 1474 1474 1474 1475 1475 1476 1477 1477 1478 1478 1478 1479 1479 1479 1479 1479 1478 1477 1476 1476 1475 1474 1473 1472 1470 1469 1468
1461 1462 1462 1462 1463 1463 1464 1464 1465 1465 1466 1467 1468 1468 1469 1470 1470 1471 1471 1471 1472 1472 1473 1473 1473 1474 1474 1474 1475 1475 1475 1475 1474 1472 1472 1471 1471 1470 1468 1467 1466 1465 1464
1459 1459 1459 1460 1461 1461 1461 1462 1462 1463 1463 1464 1464 1465 1465 1466 1467 1467 1468 1468 1468 1469 1469 1469 1469 1469 1470 1470 1470 1470 1470 1470 1470 1469 1467 1467 1466 1465 1464 1463 1462 1461 1460
1456 1457 1457 1458 1458 1459 1459 1460 1460 1460 1461 1461 1461 1461 1462 1463 1463 1464 1464 1464 1465 1465 1465 1465 1465 1465 1465 1466 1466 1466 1466 1466 1465 1465 1464 1463 1462 1461 1460 1458 1457 1457 1456
1455 1455 1455 1456 1456 1456 1457 1457 1458 1458 1458 1458 1458 1459 1459 1460 1460 1460 1460 1460 1461 1460 1460 1460 1460 1461 1461 1461 1461 1461 1461 1461 1461 1461 1460 1459 1458 1457 1456 1454 1453 1452 1451
1452 1453 1453 1454 1454 1454 1454 1455 1455 1455 1455 1455 1455 1456 1456 1456 1457 1457 1457 1456 1456 1456 1456 1456 1456 1456 1456 1456 1457 1457 1457 1457 1457 1456 1456 1455 1454 1453 1453 1451 1450 1448 1446
1451 1451 1451 1451 1451 1452 1452 1452 1452 1452 1452 1452 1452 1453 1453 1453 1453 1453 1453 1452 1452 1452 1452 1451 1451 1451 1451 1452 1452 1452 1453 1453 1453 1453 1452 1451 1450 1450 1449 1448 1447 1445 1444
1448 1449 1449 1449 1449 1449 1450 1450 1450 1450 1450 1449 1449 1449 1449 1449 1449 1449 1449 1448 1448 1448 1448 1447 1447 1447 1447 1448 1448 1448 1448 1448 1449 1448 1448 1447 1447 1446 1445 1444 1443 1442 1441
1446 1446 1446 1446 1446 1447 1447 1447 1447 1447 1446 1446 1446 1446 1446 1445 1445 1445 1445 1444 1444 1444 1444 1444 1443 1443 1443 1444 1444 1444 1444 1444 1444 1444 1444 1443 1443 1443 1442 1440 1439 1438 1436
1444 1444 1444 1444 1444 1444 1444 1444 1444 1444 1443 1443 1443 1443 1442 1442 1442 1442 1442 1441 1440 1440 1440 1440 1440 1440 1440 1440 1440 1440 1440 1440 1440 1440 1440 1439 1439 1438 1438 1437 1435 1434 1433
1442 1442 1442 1442 1441 1441 1441 1441 1441 1441 1441 1440 1440 1440 1439 1439 1439 1438 1438 1438 1437 1437 1436 1436 1436 1436 1436 1437 1437 1437 1436 1437 1436 1436 1435 1435 1434 1434 1433 1432 1432 1431 1430
1439 1439 1439 1439 1439 1439 1438 1438 1438 1438 1438 1438 1437 1437 1437 1436 1436 1435 1435 1435 1434 1434 1433 1433 1433 1433 1433 1433 1433 1433 1433 1433 1433 1432 1432 1431 1430 1430 1429 1429 1428 1428 1427
1437 1437 1436 1436 1436 1436 1436 1436 1436 1435 1435 1435 1434 1434 1433 1433 1433 1432 1432 1432 1431 1431 1431 1430 1430 1430 1430 1430 1430 1430 1430 1429 1429 1429 1428 1427 1427 1426 1426 1425 1424 1424 1424
1434 1434 1434 1434 1434 1434 1434 1433 1433 1433 1432 1432 1432 1431 1431 1430 1430 1429 1429 1429 1428 1428 1427 1427 1427 1427 1427 1426 1426 1426 1426 1426 1425 1425 1425 1424 1424 1423 1423 1422 1421 1420 1420
1432 1432 1431 1431 1431 1431 1431 1431 1431 1430 1430 1430 1429 1429 1428 1427 1427 1427 1426 1426 1425 1425 1425 1424 1424 1424 1423 1423 1423 1423 1423 1422 1422 1422 1422 1421 1421 1420 1420 1419 1419 1418 1417
1429 1429 1429 1429 1429 1429 1428 1428 1428 1428 1428 1427 1427 1426 1425 1425 1425 1424 1423 1423 1423 1422 1422 1421 1421 1420 1420 1420 1420 1419 1419 1419 1419 1419 1419 1419 1418 1418 1417 1417 1416 1416 1415
1428 1427 1427 1427 1427 1427 1426 1426 1425 1425 1425 1424 1424 1423 1423 1422 1422 1421 1421 1420 1420 1420 1419 1418 1418 1418 1417 1417 1417 1417 1416 1417 1417 1416 1416 1416 1416 1415 1415 1415 1414 1414 1413
1426 1425 1425 1425 1425 1425 1424 1424 1423 1422 1422 1421 1421 1421 1420 1419 1419 1418 1418 1417 1416 1416 1416 1415 1415 1415 1414 1414 1414 1414 1414 1414 1414 1414 1414 1413 1413 1413 1413 1412 1412 1411 1411
1423 1423 1423 1423 1423 1422 1422 1422 1421 1421 1420 1419 1418 1418 1417 1416 1416 1415 1415 1414 1413 1413 1413 1412 1412 1412 1412 1412 1412 1412 1412 1411 1411 1411 1411 1411 1411 1411 1410 1410 1410 1410 1409
1421 1421 1421 1421 1420 1420 1420 1419 1419 1419 1418 1417 1416 1415 1415 1414 1413 1412 1412 1411 1411 1410 1410 1409 1409 1409 1409 1409 1409 1409 1409 1409 1409 1409 1409 1409 1409 1409 1408 1408 1408 1407 1407
1419 1419 1419 1418 1418 1418 1418 1417 1417 1417 1416 1415 1414 1414 1413 1412 1411 1410 1410 1409 1408 1408 1407 1407 1406 1406 1406 1406 1406 1406 1406 1406 1406 1406 1406 1406 1406 1406 1406 1406 1406 1405 1405
1417 1417 1416 1416 1416 1416 1416 1416 1415 1414 1414 1413 1412 1411 1410 1410 1409 1408 1407 1407 1406 1405 1405 1404 1403 1403 1403 1403 1403 1403 1403 1403 1404 1404 1404 1404 1404 1404 1404 1404 1403 1403 1403
1414 1414 1414 1414 1414 1414 1414 1413 1413 1412 1411 1410 1410 1409 1408 1407 1406 1406 1405 1404 1404 1403 1402 1402 1401 1401 1401 1401 1401 1401 1401 1401 1401 1401 1401 1401 1402 1402 1402 1401 1401 1401 1401
1412 1412 1412 1412 1412 1412 1411 1411 1411 1410 1409 1408 1407 1406 1405 1405 1404 1403 1403 1402 1401 1401 1400 1400 1399 1399 1399 1399 1399 1399 1399 1399 1399 1399 1399 1400 1400 1400 1400 1400 1400 1400 1400
1409 1409 1410 1410 1410 1409 1409 1409 1408 1408 1407 1406 1405 1404 1403 1402 1402 1401 1400 1400 1399 1398 1398 1398 1397 1397 1397 1397 1397 1397 1397 1397 1397 1397 1398 1398 1398 1398 1398 1398 1398 1398 1398
1407 1407 1407 1408 1407 1407 1407 1407 1406 1405 1404 1403 1403 1402 1401 1400 1399 1399 1398 1398 1397 1397 1396 1396 1396 1395 1395 1395 1395 1395 1395 1395 1395 1396 1396 1396 1396 1396 1397 1397 1397 1397 1397